Weather in Plan

Russia / Penza Oblast     52°44′36″N   46°40′40″E
temp.,
°C
wind,
m/s
gust,
m/s
humid.,
%
clouds,
%
prec.,
mm/h
press.,
hPa
HPBL,
m
7 march, sun
sun700:00−13w119725 0.0 101321
03:00−14wnw119630 0.1 101320
06:00−12w339698 0.3 101389
09:00−11wnw469690 0.3 1014217
12:00−8wsw599047 0.0 1013512
15:00−7sw6108861 0.0 1011765
18:00−7ssw81591100 0.1 1008839
21:00−5sw91689100 1.1 10051082
8 march, mon
mon800:00−5sw101794100 0.7 10011064
03:00−4sw101792100 1.4 999989
06:00−4w81484100 0.4 10001063
09:00−6wsw7138675 0.4 1003807
12:00−4wsw611802 0.0 10041125
15:00−3sw588351 0.0 1004907
18:00−7ssw479472 0.0 1003120
21:00−7wsw5119466 0.1 1005250
9 march, tue
tue900:00−9wsw499557 0.0 1006211
03:00−14w479654 0.1 1008104
06:00−16wnw339848 0.0 101026
09:00−13wnw469648 0.0 1011190
12:00−9wnw359181 0.0 1011330
15:00−8wnw468771 0.0 1012623
18:00−12wnw469497 0.0 101287
21:00−14nw369698 0.1 1014103
10 march, wed
wed1000:00−16nw349896 0.0 101552
03:00−18nw469779 0.0 101697
06:00−21nw47991 0.0 1017121
09:00−19nw479639 0.0 1019292
12:00−15nw578798 0.0 1020699
15:00−15nw578699 0.1 1021893
18:00−18nw51092100 0.1 1022423
21:00−24nnw479690 0.1 1025136
11 march, thu
thu1100:00−27nnw45970 0.0 102685
03:00−28nw45980 0.0 102876
06:00−28nw45960 0.0 102875
09:00−22wnw47940 0.0 1029236
12:00−17wnw59880 0.0 1028370
15:00−13wnw610860 0.0 1028481
18:00−16wnw59910 0.0 1029196
21:00−19wnw48950 0.0 1030130